Meteo Giornale » Osservazioni meteo Svezia » Stockholm-Arlanda

ore: 16:50 - Osservazioni Meteo Stockholm-Arlanda
Lat. 59° 39' N Lon. 17° 57' E Alt. 38 metri s.l.m.

nuvoloso_temporali Europe/Stockholm

11 °C

Temporale con Pioggia

Temp. 24 Ore

10 °C

20 °C

Nord

13 Km/h

Dew point 10 °C

Umidità 93 %

Visibilità  6 Km

Il sole sorge alle ore 03:43

Il sole tramonta alle ore 21:47

Data e Ora Cielo e Fenomeni T °C DP °C Um. % Pres. hPa Vis. km Vento km/h
Oggi h: 16:50 nuvoloso_temporali Temporale con Pioggia 11 10 93 1024 6 N 13
Oggi h: 16:20 nuvoloso_temporali Temporale con Pioggia 12 9 81 1024 6 N 18.5
Oggi h: 15:50 coperto_pioggia Pioggia Temporale nelle Vicinanze 14 9 71 1023 10 NE 20.3
Oggi h: 15:20 molto_nuvoloso Molto Nuvoloso 16 7 55 1023 10 E 14.8
Oggi h: 14:50 coperto Coperto 17 7 51 1023 10 NE 11.1
Oggi h: 14:20 molto_nuvoloso Molto Nuvoloso 16 7 55 1023 10 NE 14.8
Oggi h: 13:50 molto_nuvoloso Molto Nuvoloso 16 7 55 1023 10 N/NE 18.5
Oggi h: 13:20 molto_nuvoloso Molto Nuvoloso 17 8 55 1023 10 N 13
Oggi h: 12:50 molto_nuvoloso Molto Nuvoloso 16 8 58 1024 10 N/NO 14.8
Oggi h: 12:20 molto_nuvoloso Molto Nuvoloso 17 7 51 1024 10 O 14.8
Oggi h: 11:50 molto_nuvoloso Molto Nuvoloso 17 8 55 1024 10 SO 13
Oggi h: 11:20 molto_nuvoloso Molto Nuvoloso 16 8 58 1024 10 O 13
Oggi h: 10:50 sereno Sereno 16 8 58 1024 10 O 11.1
Oggi h: 10:20 sereno Sereno 15 8 62 1024 10 O/SO 11.1
Oggi h: 09:50 sereno Sereno 15 8 62 1024 10 O/SO 11.1
Oggi h: 09:20 sereno Sereno 14 8 67 1025 10 O 13
Oggi h: 08:50 sereno Sereno 14 8 67 1025 10 O/SO 13
Oggi h: 08:20 sereno Sereno 13 8 71 1025 10 O 16.7
Oggi h: 07:50 sereno Sereno 12 7 71 1025 10 O/SO 16.7
Oggi h: 07:20 sereno Sereno 12 7 71 1025 10 O/SO 18.5
Oggi h: 06:50 sereno Sereno 12 7 71 1026 10 O/SO 16.7
Oggi h: 06:20 sereno Sereno 11 7 76 1026 10 O/SO 14.8
Oggi h: 05:50 sereno Sereno 11 7 76 1026 10 O/SO 16.7
Oggi h: 05:20 sereno Sereno 11 7 76 1026 10 O/SO 16.7
Oggi h: 04:50 sereno Sereno 10 6 76 1026 10 SO 14.8
Oggi h: 04:20 sereno Sereno 10 6 76 1027 10 SO 13
Oggi h: 03:50 sereno Sereno 10 6 76 1027 10 O/SO 16.7
Oggi h: 03:20 sereno Sereno 10 5 71 1027 10 SO 14.8
Oggi h: 02:50 sereno Sereno 11 5 66 1027 10 O/SO 11.1
Oggi h: 02:20 sereno Sereno 11 6 71 1027 10 O/SO 13
Oggi h: 01:50 sereno Sereno 11 6 71 1028 10 O/SO 13
Oggi h: 01:20 sereno Sereno 12 6 66 1028 10 O/SO 11.1
Oggi h: 00:50 sereno Sereno 12 6 66 1028 10 SO 11.1
Oggi h: 00:20 sereno Sereno 12 6 66 1028 10 S 11.1
Ieri h: 23:50 sereno Sereno 13 7 66 1028 10 S/SO 14.8
Ieri h: 23:20 sereno Sereno 13 7 66 1029 10 S/SO 13
Ieri h: 22:50 sereno Sereno 13 6 62 1029 10 S/SO 14.8
Ieri h: 22:20 sereno Sereno 14 6 58 1029 10 S 14.8
Ieri h: 21:20 sereno Sereno 15 6 54 1029 10 S 20.3
Ieri h: 20:50 sereno Sereno 16 6 51 1029 10 S 20.3
Ieri h: 20:20 sereno Sereno 17 6 48 1029 10 S 20.3
Ieri h: 19:50 sereno Sereno 18 7 48 1029 10 S/SO 18.5
Ieri h: 19:20 sereno Sereno 18 7 48 1029 10 S/SO 18.5
Ieri h: 18:50 sereno Sereno 19 6 42 1029 10 S/SO 18.5
Ieri h: 17:50 sereno Sereno 20 5 37 1030 10 O/SO 11.1